Precipitable_Water
1.65 1.70 1.68 1.76 1.80 1.71 1.43 1.28 1.25 1.29 1.30 1.26 1.21 1.16 1.14 1.18 1.21 1.16 1.14 1.12 1.06 1.02 1.01 0.93 0.84 0.81 0.74 0.75 0.78 0.82 0.82 0.88 0.84 0.97 1.08 1.23 1.27 1.28 1.37 1.49 1.60 1.70 1.78
1.65 1.66 1.70 1.76 1.77 1.55 1.23 1.25 1.30 1.32 1.36 1.27 1.26 1.21 1.23 1.24 1.22 1.12 1.05 1.01 0.93 0.83 0.83 0.74 0.65 0.66 0.61 0.60 0.55 0.52 0.57 0.67 0.71 0.70 0.81 0.88 1.06 1.14 1.23 1.27 1.36 1.45 1.51
1.68 1.70 1.73 1.75 1.63 1.29 1.24 1.27 1.34 1.34 1.31 1.33 1.32 1.28 1.28 1.26 1.21 1.14 1.03 0.94 0.91 0.83 0.70 0.55 0.54 0.54 0.50 0.48 0.48 0.47 0.48 0.49 0.47 0.49 0.61 0.77 0.85 0.92 1.02 1.13 1.15 1.27 1.25
1.64 1.69 1.72 1.70 1.48 1.20 1.29 1.28 1.29 1.33 1.30 1.33 1.34 1.34 1.35 1.28 1.19 1.12 1.07 1.02 0.91 0.72 0.60 0.60 0.59 0.58 0.58 0.59 0.55 0.52 0.50 0.46 0.45 0.44 0.45 0.47 0.59 0.77 0.83 0.80 0.88 0.95 1.06
1.58 1.68 1.72 1.63 1.39 1.25 1.31 1.35 1.35 1.34 1.36 1.33 1.34 1.32 1.30 1.28 1.19 1.12 1.06 0.95 0.74 0.63 0.66 0.68 0.68 0.71 0.73 0.70 0.64 0.60 0.56 0.53 0.50 0.47 0.44 0.44 0.43 0.47 0.50 0.65 0.72 0.78 0.91
1.60 1.67 1.69 1.59 1.39 1.26 1.34 1.39 1.37 1.37 1.36 1.30 1.25 1.18 1.14 1.15 1.12 1.03 0.95 0.79 0.73 0.71 0.69 0.76 0.80 0.82 0.73 0.69 0.66 0.64 0.62 0.55 0.48 0.44 0.41 0.37 0.37 0.40 0.46 0.47 0.49 0.46 0.44
1.68 1.73 1.71 1.62 1.40 1.31 1.43 1.45 1.37 1.36 1.37 1.27 1.21 1.19 1.13 1.04 0.92 0.95 0.95 0.88 0.82 0.77 0.79 0.81 0.74 0.77 0.78 0.72 0.73 0.72 0.72 0.69 0.65 0.57 0.49 0.49 0.48 0.49 0.46 0.40 0.41 0.42 0.42
1.75 1.78 1.79 1.68 1.48 1.44 1.49 1.43 1.42 1.41 1.36 1.33 1.27 1.11 1.03 0.97 0.91 0.90 0.92 0.90 0.86 0.76 0.73 0.70 0.67 0.71 0.79 0.80 0.75 0.73 0.67 0.63 0.60 0.58 0.60 0.63 0.67 0.68 0.65 0.60 0.55 0.50 0.50
1.69 1.76 1.82 1.73 1.53 1.49 1.50 1.45 1.45 1.38 1.33 1.38 1.22 1.09 1.04 0.98 0.98 0.94 0.79 0.70 0.65 0.61 0.57 0.57 0.58 0.60 0.69 0.74 0.70 0.68 0.59 0.59 0.63 0.63 0.68 0.71 0.75 0.78 0.78 0.71 0.63 0.58 0.51
1.97 1.98 1.99 1.93 1.72 1.56 1.55 1.51 1.50 1.43 1.40 1.31 1.18 1.14 1.17 1.10 1.12 1.02 0.84 0.67 0.55 0.53 0.56 0.57 0.58 0.61 0.64 0.70 0.65 0.58 0.54 0.57 0.60 0.62 0.64 0.69 0.74 0.75 0.77 0.77 0.70 0.60 0.59
2.07 2.19 2.09 2.03 1.88 1.74 1.67 1.61 1.49 1.46 1.32 1.23 1.15 1.20 1.21 1.17 1.11 0.96 0.78 0.67 0.61 0.57 0.53 0.50 0.54 0.58 0.60 0.64 0.64 0.62 0.61 0.66 0.68 0.71 0.71 0.74 0.78 0.78 0.78 0.80 0.80 0.75 0.68
1.81 1.70 1.68 1.91 1.83 1.72 1.63 1.58 1.51 1.36 1.23 1.20 1.19 1.18 1.17 1.21 1.18 0.95 0.81 0.74 0.70 0.53 0.51 0.54 0.57 0.60 0.62 0.64 0.66 0.67 0.69 0.73 0.76 0.77 0.78 0.79 0.83 0.85 0.89 0.94 0.96 0.95 0.95
1.68 1.69 1.79 1.84 1.75 1.69 1.57 1.54 1.48 1.27 1.23 1.25 1.21 1.14 1.13 1.14 0.99 0.85 0.78 0.74 0.62 0.56 0.57 0.60 0.60 0.61 0.64 0.67 0.69 0.72 0.77 0.80 0.84 0.83 0.83 0.86 0.91 0.94 0.96 0.98 1.00 1.01 1.01
1.64 1.63 1.63 1.61 1.58 1.53 1.53 1.53 1.36 1.25 1.22 1.21 1.17 1.10 1.03 0.92 0.78 0.72 0.69 0.64 0.60 0.60 0.61 0.62 0.63 0.64 0.65 0.67 0.69 0.74 0.77 0.81 0.84 0.86 0.88 0.92 0.92 0.91 0.91 0.96 0.95 0.96 0.93
1.64 1.67 1.65 1.56 1.48 1.48 1.45 1.36 1.26 1.27 1.22 1.11 1.01 0.93 0.78 0.58 0.60 0.66 0.59 0.57 0.60 0.62 0.63 0.64 0.64 0.67 0.66 0.66 0.68 0.71 0.73 0.79 0.80 0.86 0.85 0.84 0.85 0.88 0.90 0.93 0.91 0.88 0.80
1.59 1.63 1.52 1.42 1.47 1.47 1.29 1.18 1.26 1.28 1.15 1.04 0.90 0.80 0.67 0.63 0.61 0.60 0.59 0.60 0.63 0.63 0.62 0.61 0.62 0.65 0.64 0.63 0.61 0.63 0.70 0.71 0.74 0.82 0.86 0.89 0.90 0.88 0.83 0.79 0.74 0.69 0.65
1.50 1.48 1.43 1.43 1.43 1.36 1.25 1.17 1.10 1.06 1.08 0.95 0.88 0.74 0.65 0.60 0.61 0.60 0.62 0.63 0.65 0.66 0.62 0.61 0.62 0.63 0.62 0.58 0.62 0.68 0.68 0.76 0.84 0.85 0.85 0.83 0.78 0.74 0.69 0.65 0.64 0.64 0.63
1.44 1.41 1.40 1.43 1.39 1.32 1.24 1.18 1.07 0.98 0.92 0.86 0.82 0.66 0.61 0.62 0.62 0.62 0.63 0.65 0.62 0.65 0.64 0.63 0.64 0.63 0.59 0.59 0.63 0.65 0.71 0.81 0.81 0.79 0.78 0.74 0.72 0.69 0.67 0.67 0.68 0.67 0.66
1.39 1.38 1.42 1.45 1.41 1.28 1.17 1.13 1.07 1.05 0.93 0.90 0.66 0.60 0.62 0.62 0.63 0.64 0.66 0.63 0.60 0.61 0.62 0.63 0.61 0.56 0.54 0.61 0.68 0.71 0.74 0.76 0.77 0.77 0.71 0.71 0.74 0.72 0.69 0.71 0.71 0.71 0.71
1.38 1.41 1.43 1.43 1.39 1.24 1.18 1.14 1.08 0.99 0.94 0.67 0.56 0.54 0.59 0.60 0.58 0.62 0.66 0.64 0.61 0.63 0.65 0.56 0.52 0.50 0.57 0.70 0.77 0.81 0.85 0.82 0.79 0.73 0.75 0.76 0.75 0.73 0.71 0.75 0.75 0.72 0.73
1.41 1.44 1.47 1.43 1.28 1.22 1.19 1.14 1.06 0.96 0.71 0.58 0.52 0.58 0.60 0.58 0.61 0.66 0.63 0.62 0.65 0.63 0.57 0.49 0.45 0.51 0.66 0.78 0.86 0.89 0.84 0.81 0.78 0.79 0.81 0.77 0.73 0.72 0.78 0.81 0.79 0.78 0.77
1.48 1.47 1.45 1.26 1.20 1.20 1.13 1.08 1.00 0.74 0.58 0.50 0.54 0.58 0.63 0.65 0.69 0.67 0.66 0.66 0.65 0.61 0.51 0.46 0.44 0.53 0.73 0.87 0.95 0.90 0.83 0.83 0.82 0.84 0.83 0.83 0.82 0.82 0.84 0.84 0.83 0.80 0.79
1.52 1.41 1.34 1.18 1.17 1.13 1.08 0.95 0.78 0.58 0.51 0.54 0.57 0.60 0.67 0.70 0.72 0.69 0.66 0.66 0.61 0.50 0.46 0.43 0.44 0.55 0.76 0.97 1.05 0.90 0.85 0.83 0.85 0.87 0.84 0.85 0.87 0.87 0.89 0.87 0.87 0.84 0.81
1.49 1.34 1.23 1.15 1.09 1.03 0.98 0.80 0.60 0.53 0.55 0.58 0.61 0.68 0.75 0.76 0.72 0.70 0.68 0.64 0.51 0.45 0.42 0.42 0.48 0.60 0.75 1.00 1.07 0.91 0.89 0.87 0.88 0.89 0.89 0.87 0.86 0.89 0.88 0.89 0.91 0.89 0.86
1.24 1.19 1.15 1.03 0.99 0.97 0.84 0.62 0.59 0.57 0.59 0.64 0.67 0.73 0.78 0.74 0.73 0.76 0.72 0.61 0.46 0.41 0.40 0.43 0.53 0.66 0.98 1.09 1.07 0.95 0.90 0.88 0.86 0.90 0.92 0.90 0.88 0.90 0.89 0.91 0.93 0.92 0.90
1.26 1.21 1.08 1.05 1.02 0.84 0.65 0.56 0.60 0.62 0.66 0.70 0.72 0.75 0.78 0.81 0.81 0.78 0.70 0.54 0.43 0.41 0.42 0.45 0.52 0.62 0.87 1.12 1.11 1.02 0.90 0.87 0.87 0.89 0.89 0.89 0.91 0.93 0.94 0.96 0.95 0.89 0.93
Wind_Speed
14 13 11 10 9 8 7 6 5 5 5 5 6 7 8 9 10 11 11 12 12 12 12 13 13 13 13 14 14 15 15 15 16 16 16 16 15 15 14 14 13 13 13
13 12 11 9 8 7 6 6 6 5 5 6 7 9 10 11 12 12 12 13 13 13 13 14 14 14 14 15 15 15 16 16 17 17 18 18 17 17 16 15 15 15 15
13 13 11 10 9 7 7 6 6 5 6 7 9 10 12 13 14 15 14 14 14 15 15 15 15 15 16 16 17 17 18 18 18 19 20 20 20 20 19 18 18 18 18
14 14 12 11 10 8 7 6 6 6 7 8 10 11 13 14 15 16 15 15 16 16 16 16 16 16 17 18 19 19 19 19 20 20 21 22 23 23 23 23 23 23 22
14 14 13 12 11 10 9 7 7 8 9 10 12 13 15 16 17 16 16 16 16 16 16 17 17 18 18 19 20 21 21 21 22 23 24 24 25 25 26 27 27 27 26
14 14 14 13 13 12 10 9 9 9 10 12 13 15 16 18 18 18 18 17 17 17 18 19 20 20 21 21 21 22 23 24 25 26 27 27 28 28 28 28 29 29 29
16 15 15 15 15 14 13 12 11 11 12 13 14 16 17 18 17 18 18 17 18 19 20 21 22 22 23 24 25 26 27 28 29 30 30 30 30 31 31 32 32 32 32
19 18 18 18 17 16 15 14 13 14 14 15 16 17 18 18 18 19 17 17 18 19 20 21 23 25 26 26 27 28 29 31 31 31 29 27 26 27 29 31 33 34 33
23 22 22 21 19 19 18 16 16 15 16 17 18 18 18 18 18 19 19 18 19 20 22 23 25 25 26 27 27 28 29 29 27 26 23 22 22 23 23 23 26 27 30
25 24 23 22 21 20 19 18 18 17 17 17 18 18 18 18 20 20 20 20 20 21 23 25 26 25 25 25 25 26 26 26 25 22 22 22 22 22 22 21 20 21 24
18 19 20 21 20 20 20 20 19 18 18 18 17 17 18 19 20 20 21 21 22 23 24 25 25 26 25 24 25 25 26 26 26 25 24 24 24 23 22 22 21 21 22
20 18 17 19 18 21 23 22 19 17 17 16 16 19 20 21 21 20 20 21 21 22 23 24 24 24 24 25 26 27 28 28 26 25 24 24 23 23 24 23 23 23 24
15 13 13 16 17 18 20 23 19 17 17 17 18 18 21 21 20 20 19 19 20 21 23 23 24 24 25 25 26 27 26 25 24 23 23 24 25 25 25 26 26 27 27
14 13 11 11 12 12 11 12 15 14 14 15 18 19 20 19 18 17 17 19 20 21 22 23 24 25 26 27 27 26 25 24 24 24 24 25 26 27 29 31 31 31 31
15 14 12 13 12 11 11 12 13 14 14 15 16 18 17 16 15 15 16 17 19 21 23 24 26 27 28 27 26 25 24 24 24 24 26 28 30 31 30 29 29 29 30
13 13 13 13 12 11 10 10 11 13 13 14 15 14 13 12 12 14 16 18 19 22 24 25 27 27 27 26 25 24 25 25 25 28 30 31 30 28 28 28 29 29 30
15 15 16 14 12 12 11 11 11 12 13 14 13 12 11 11 14 15 17 19 21 23 25 26 27 26 26 25 25 24 24 25 27 28 28 27 26 26 28 28 28 27 28
18 18 16 15 14 13 13 13 13 12 12 13 12 11 11 13 15 17 19 21 23 25 26 26 26 26 26 25 23 23 24 26 26 27 26 26 26 25 25 25 25 25 25
19 18 17 16 15 14 13 12 13 13 13 12 10 10 11 13 16 17 19 21 23 24 23 24 25 25 24 23 23 24 24 25 25 25 24 23 23 23 23 23 24 24 25
19 18 18 17 16 14 13 12 12 11 10 9 9 10 11 13 16 18 19 21 22 22 23 24 25 23 22 23 23 22 22 23 23 22 20 21 21 21 21 22 22 22 23
19 19 18 17 16 14 13 12 11 10 9 8 8 9 11 13 16 17 19 20 21 23 23 24 23 23 23 22 22 20 20 20 19 18 18 19 20 19 19 22 23 23 23
20 19 18 17 16 14 13 11 9 9 8 7 7 9 11 12 14 17 18 19 22 24 23 23 23 22 22 21 20 19 17 16 16 16 17 18 18 20 21 23 23 24 23
19 19 18 17 16 14 12 11 10 8 7 6 6 8 11 11 14 15 17 20 23 24 23 23 23 21 21 20 20 17 14 14 14 15 17 17 19 20 22 23 23 24 23
19 18 18 17 15 14 13 11 9 8 6 5 7 9 10 12 13 14 18 21 22 23 23 23 22 22 22 20 17 15 13 12 13 15 16 18 19 21 23 23 23 23 23
17 19 19 16 14 14 13 11 10 7 5 5 7 8 11 11 11 15 18 21 22 23 23 22 23 24 23 17 15 15 12 12 12 14 16 18 19 21 23 22 23 22 21
17 18 19 17 14 15 14 12 10 6 4 4 7 9 10 11 12 15 18 20 21 22 23 23 23 25 24 18 15 14 12 11 12 14 16 18 19 20 21 21 23 23 21
Wind_Direction
230 232 237 244 258 270 264 258 264 271 282 295 309 319 322 322 319 317 315 313 314 313 310 311 312 312 313 313 311 309 308 303 298 296 298 295 292 290 287 287 281 273 264
224 224 228 243 254 256 253 256 260 267 279 290 303 312 316 316 316 314 312 310 310 311 309 308 307 308 310 309 309 310 309 306 300 295 293 293 289 288 283 279 276 271 266
221 222 229 240 244 245 247 248 251 264 278 293 304 312 314 313 312 310 308 306 305 307 306 306 304 305 306 307 308 308 306 304 301 295 291 288 284 284 280 276 273 270 268
220 221 230 237 235 235 237 241 249 268 282 292 302 310 315 315 314 309 306 305 303 303 303 303 302 303 304 306 307 307 306 304 302 297 292 287 283 280 277 275 272 269 266
218 224 231 229 231 232 235 245 259 275 287 296 301 306 311 313 313 308 304 303 302 301 301 303 303 302 302 303 304 305 304 303 301 297 294 289 285 282 278 275 270 268 265
224 229 231 230 230 231 237 250 263 277 290 299 304 307 312 312 310 309 304 299 299 299 299 300 301 300 301 302 303 303 303 302 301 298 294 290 286 282 279 275 271 269 264
233 235 234 233 234 234 239 249 261 276 289 298 302 307 311 315 314 312 307 299 298 299 299 299 299 299 299 300 302 303 302 302 301 298 295 292 288 283 279 274 270 267 264
239 239 238 236 236 234 240 249 262 276 287 293 299 304 308 309 313 316 313 307 303 303 304 303 300 299 298 298 300 302 303 304 303 302 299 298 293 289 285 279 272 267 265
244 241 240 237 235 237 244 250 263 276 286 292 297 299 302 304 308 314 314 310 307 306 307 309 308 305 302 299 301 303 306 308 307 305 301 299 299 300 297 291 280 269 265
247 239 236 232 233 239 246 255 263 272 282 291 297 299 301 302 303 305 308 310 310 310 310 311 312 310 308 306 306 308 309 310 312 308 303 302 301 300 299 297 291 279 272
266 239 236 232 236 246 253 257 263 270 282 287 290 295 301 301 303 303 304 306 307 309 311 314 313 312 312 310 310 310 310 312 309 305 302 301 300 297 296 293 289 283 277
268 269 267 241 245 259 258 254 257 266 277 282 287 295 298 300 301 300 301 304 308 311 313 316 316 315 313 312 311 311 310 308 307 305 303 300 300 297 295 293 289 284 278
261 262 252 257 261 264 259 250 256 260 269 280 286 292 298 300 299 298 300 303 308 312 315 317 318 317 316 315 314 313 313 312 310 306 302 300 300 299 296 292 289 285 281
248 251 252 256 268 271 264 253 244 258 271 279 288 294 298 302 300 300 302 307 309 313 316 318 318 318 317 316 316 315 314 313 311 308 305 303 302 300 298 296 291 286 282
248 244 256 266 266 261 259 254 252 261 276 284 289 295 296 299 300 302 307 310 313 315 318 319 319 319 319 318 317 316 315 313 313 312 310 307 305 302 300 299 295 292 287
252 248 264 263 258 258 254 255 262 269 276 286 294 296 298 301 305 307 310 313 315 318 320 321 321 321 320 320 319 317 317 316 314 315 314 312 308 305 304 302 299 296 292
254 257 264 251 252 252 252 251 263 274 280 288 293 291 294 300 306 311 315 317 318 319 319 320 321 322 322 321 320 319 319 319 318 317 318 317 315 311 309 306 304 301 298
257 260 251 249 250 250 250 255 263 272 277 285 287 282 292 302 310 315 317 318 319 319 319 320 322 323 323 323 322 321 321 321 321 321 321 321 320 319 317 315 312 309 305
255 253 247 248 246 247 248 250 259 267 274 279 279 282 296 307 315 320 320 321 323 325 325 324 324 324 324 324 323 322 323 324 325 326 327 329 329 328 327 325 322 318 315
252 249 246 243 241 240 243 249 261 265 266 261 276 283 300 314 322 325 326 327 328 330 329 328 327 327 326 325 326 325 327 330 331 334 336 337 338 337 338 337 336 331 329
247 245 238 236 231 231 242 248 256 254 249 258 276 289 304 314 321 327 330 332 333 333 332 331 331 330 330 329 330 330 332 336 341 345 348 347 348 348 347 345 345 343 338
241 233 227 222 224 231 234 242 239 238 241 255 273 299 311 317 324 331 334 336 337 336 335 334 334 333 334 335 335 335 337 343 348 351 352 354 353 350 349 349 348 349 347
227 221 217 219 222 223 226 225 225 226 234 250 284 307 317 323 329 334 338 339 340 340 340 339 339 338 338 337 337 337 338 342 346 349 352 354 355 356 355 355 355 355 355
212 210 207 207 211 214 215 216 217 215 229 264 295 311 319 325 331 336 340 342 343 344 344 343 343 341 338 336 339 339 337 339 344 348 350 349 351 351 352 354 354 355 357
206 206 201 204 208 209 208 204 197 210 242 278 304 314 325 327 331 337 341 344 346 347 347 346 346 345 341 336 336 337 335 336 340 345 347 348 348 348 352 354 355 355 355
205 206 211 205 205 205 200 194 200 210 244 290 313 319 323 327 329 334 338 343 346 348 349 349 347 347 347 338 334 333 331 332 334 340 344 346 348 352 354 355 356 357 355